SCP
0 0 0 0 0 0 0 0 0 0 0 0 0 0 0 0 0 0 0 0 0 0 0 0 0 0 0 0 0 0 0 0
0 0 0 0 0 0 0 0 0 0 0 0 0 0 0 0 0 0 0 0 0 0 0 0 0 0 0 0 0 0 0 0
0 0 0 0 0 0 0 0 0 0 0 0 0 0 0 0 0 0 0 0 0 0 0 0 0 0 0 0 0 0 0 0
0 0 0 0 0 0 0 0 0 0 0 0 0 0 0 0 0 0 0 0 0 0 0 0 0 0 0 0 0 0 0 0
0 0 0 0 0 0 0 0 0 0 0 0 0 0 0 0 0 0 0 0 0 0 0 0 0 0 0 0 0 0 0 0
0 0 0 0 0 0 0 0 0 0 0 0 0 0 0 0 0 0 0 0 0 0 0 0 0 0 0 0 0 0 0 0
0 0 0 0 0 0 0 0 0 0 0 0 0 0 0 0 0 0 0 0 0 0 0 0 0 0 0 0 0 0 0 0
0 0 0 0 0 0 0 0 0 0 0 0 0 0 0 0 0 0 0 0 0 0 0 0 0 0 0 0 0 0 0 0
0 0 0 0 0 0 0 0 0 0 0 0 0 0 0 0 0 0 0 0 0 0 0 0 0 0 0 0 0 0 0 0
0 0 0 0 0 0 0 0 0 0 0 0 0 0 0 0 0 0 0 0 0 0 0 0 0 0 0 0 0 0 0 0
0 0 0 0 0 0 0 0 0 0 0 0 0 0 0 0 0 0 0 0 0 0 0 0 0 0 0 0 0 0 0 0
0 0 0 0 0 0 0 0 0 0 0 0 0 0 0 0 0 0 0 0 0 0 0 0 0 0 0 0 0 0 0 0
0 0 0 0 0 0 0 0 0 0 0 0 0 0 0 0 0 0 0 0 0 0 0 0 0 0 0 0 0 0 0 0
0 0 0 0 0 0 0 0 0 0 0 0 0 0 0 0 0 0 0 0 0 0 0 0 0 0 0 0 0 0 0 0
0 0 0 0 0 0 0 0 0 0 0 0 0 0 0 0 0 0 0 0 0 0 0 0 0 0 0 0 0 0 0 0
0 0 0 0 0 0 0 0 0 0 0 0 0 0 0 0 0 0 0 0 0 0 0 0 0 0 0 0 0 0 0 0
0 0 0 0 0 0 0 0 0 0 0 0 0 0 0 0 0 0 0 0 0 0 0 0 0 0 0 0 0 0 0 0
0 0 0 0 0 0 0 0 0 0 0 0 0 0 0 0 0 0 0 0 0 0 0 0 0 0 0 0 0 0 0 0
0 0 0 0 0 0 0 0 0 0 0 0 0 0 0 0 0 0 0 0 0 0 0 0 0 0 0 0 0 0 0 0
0 0 0 0 0 0 0 0 0 0 0 0 0 0 0 0 0 0 0 0 0 0 0 0 0 0 0 0 0 0 0 0
Wind_Speed_500mb
39 47 48 46 44 40 35 33 24 19 18 12 10 5 6 4 10 13 20 21 21 21 22 23 25 26 27 29 31 33 36 38
56 55 50 45 43 39 33 25 17 10 10 1 12 11 12 10 15 17 17 17 16 18 22 24 26 27 28 31 33 34 35 36
57 47 36 23 15 12 19 24 16 24 22 19 18 18 18 17 16 15 14 15 18 21 22 24 25 27 29 30 30 31 33 35
47 38 38 23 24 37 47 46 38 33 28 27 24 21 17 17 16 14 15 17 20 22 24 25 26 26 27 28 30 32 33 34
59 58 51 51 51 48 44 42 39 34 31 26 22 19 18 17 15 14 17 20 24 26 26 26 26 26 27 28 30 31 31 31
60 56 55 53 52 50 48 42 38 35 30 25 22 20 18 18 16 18 20 23 26 26 26 26 27 27 28 30 30 29 29 31
50 53 54 55 54 51 47 43 41 35 30 28 25 20 21 19 20 21 23 25 26 27 28 28 29 29 31 31 31 29 30 33
59 58 55 55 53 51 44 41 39 35 34 29 24 25 22 22 24 25 26 26 27 29 30 30 31 33 34 32 32 31 33 34
61 56 57 56 50 47 44 40 40 38 33 29 28 26 25 26 27 28 27 28 29 30 32 34 35 35 35 34 32 30 31 34
52 49 51 54 54 49 45 43 39 36 33 32 30 29 28 30 30 29 28 29 31 33 34 36 37 36 36 34 31 29 30 35
36 44 50 53 52 49 45 41 39 37 36 35 34 33 34 33 30 31 32 32 34 36 37 38 38 36 34 31 28 30 36 40
39 43 47 49 48 45 43 42 38 38 38 37 38 39 38 35 34 33 35 37 38 39 39 38 35 34 33 33 32 34 38 40
32 36 38 38 38 39 40 36 39 38 38 41 42 43 40 40 40 37 38 41 41 40 38 36 34 34 34 35 34 35 39 40
13 16 20 26 31 35 33 35 36 39 42 44 46 46 45 45 43 43 42 41 41 39 38 38 37 35 34 34 34 36 37 45
12 17 22 26 31 32 32 36 41 45 46 48 51 51 52 50 49 48 44 42 41 39 38 38 39 37 33 33 34 37 42 48
19 23 27 31 35 37 40 44 48 50 51 53 55 56 57 55 54 50 46 44 43 39 37 39 40 37 35 34 35 39 44 50
27 32 34 39 44 46 50 52 54 56 56 57 58 61 61 59 57 52 50 47 43 40 39 40 37 38 35 35 38 43 47 51
36 39 41 45 49 50 54 57 59 60 61 62 64 64 62 61 58 56 51 48 43 43 42 40 36 36 35 37 38 44 49 52
39 40 42 45 47 49 53 58 61 62 65 66 67 64 64 63 60 56 53 48 44 43 42 39 37 37 36 38 41 44 48 52
37 38 41 45 44 47 53 58 62 66 68 68 67 67 65 62 59 56 52 50 48 45 40 37 37 37 37 38 41 46 50 53
Wind_Direction_500mb
151 147 142 137 132 124 119 117 106 91 82 49 359 352 291 264 273 294 306 316 328 337 345 345 343 343 344 345 346 345 345 344
142 138 134 130 126 122 121 106 93 63 91 186 260 251 246 261 280 293 307 320 331 338 341 340 341 344 346 347 345 342 339 338
144 142 141 146 163 212 253 263 212 194 211 225 245 250 262 265 283 295 311 324 332 333 336 339 341 342 340 338 337 338 339 338
161 166 164 185 190 168 174 187 205 215 224 222 225 236 246 268 285 303 318 324 329 334 335 334 331 331 331 333 335 336 335 334
168 169 178 178 184 187 200 210 217 217 217 224 225 237 259 275 291 309 319 323 324 321 318 317 319 323 326 329 331 331 328 329
183 187 186 185 193 207 218 216 216 217 221 226 233 251 270 281 295 308 310 309 307 306 309 312 314 316 321 325 324 322 325 323
194 195 196 201 210 216 215 216 219 223 228 231 240 258 269 280 294 296 295 298 301 303 305 306 307 314 315 316 317 318 315 315
206 207 210 212 214 216 217 220 225 228 231 235 249 260 271 282 283 288 293 294 296 299 302 304 308 310 312 314 311 313 313 314
215 219 220 219 221 221 223 224 228 232 235 242 252 265 275 278 281 283 285 290 293 298 300 303 306 307 306 307 311 311 310 310
224 227 221 221 223 227 227 229 232 236 242 250 261 267 271 276 276 277 282 287 292 297 300 300 299 299 304 309 308 307 310 315
212 214 218 223 228 232 234 235 238 241 246 254 263 270 272 270 272 277 281 286 292 294 292 292 294 297 298 303 312 313 312 315
215 221 228 233 235 234 235 237 238 243 252 262 269 268 266 267 270 275 279 284 287 288 289 290 292 298 305 308 306 304 311 316
225 233 235 233 232 232 233 234 241 251 263 270 271 267 268 268 269 273 276 278 280 281 284 289 293 296 295 296 300 304 313 318
212 218 222 222 226 230 235 243 256 265 270 274 274 269 268 268 268 271 272 274 277 282 286 289 289 286 290 295 298 308 314 319
248 251 248 245 245 248 252 260 266 272 277 279 276 270 269 269 269 269 271 274 276 278 277 281 284 285 287 292 301 308 315 320
270 265 261 256 255 257 263 268 272 275 276 278 278 274 272 269 269 270 272 272 270 269 270 274 275 278 285 291 301 306 316 323
279 274 271 265 263 265 268 270 273 275 278 280 278 275 271 271 271 271 269 266 263 262 265 268 268 277 283 289 297 309 319 323
280 273 269 267 267 271 273 273 275 276 277 277 277 276 274 271 271 271 267 265 263 262 265 267 271 280 280 288 302 313 318 319
281 282 280 276 276 274 273 273 273 275 277 275 275 273 271 270 269 267 265 266 263 262 263 263 273 277 283 294 305 311 314 317
286 287 285 283 283 281 278 277 277 278 276 274 272 271 269 268 266 264 262 260 259 261 261 263 273 274 284 296 306 311 314 317
Wind_Speed_850mb
39 47 48 46 44 40 35 33 24 19 18 12 10 5 6 4 10 13 20 21 21 21 22 23 25 26 27 29 31 33 36 38
56 55 50 45 43 39 33 25 17 10 10 1 12 11 12 10 15 17 17 17 16 18 22 24 26 27 28 31 33 34 35 36
57 47 36 23 15 12 19 24 16 24 22 19 18 18 18 17 16 15 14 15 18 21 22 24 25 27 29 30 30 31 33 35
47 38 38 23 24 37 47 46 38 33 28 27 24 21 17 17 16 14 15 17 20 22 24 25 26 26 27 28 30 32 33 34
59 58 51 51 51 48 44 42 39 34 31 26 22 19 18 17 15 14 17 20 24 26 26 26 26 26 27 28 30 31 31 31
60 56 55 53 52 50 48 42 38 35 30 25 22 20 18 18 16 18 20 23 26 26 26 26 27 27 28 30 30 29 29 31
50 53 54 55 54 51 47 43 41 35 30 28 25 20 21 19 20 21 23 25 26 27 28 28 29 29 31 31 31 29 30 33
59 58 55 55 53 51 44 41 39 35 34 29 24 25 22 22 24 25 26 26 27 29 30 30 31 33 34 32 32 31 33 34
61 56 57 56 50 47 44 40 40 38 33 29 28 26 25 26 27 28 27 28 29 30 32 34 35 35 35 34 32 30 31 34
52 49 51 54 54 49 45 43 39 36 33 32 30 29 28 30 30 29 28 29 31 33 34 36 37 36 36 34 31 29 30 35
36 44 50 53 52 49 45 41 39 37 36 35 34 33 34 33 30 31 32 32 34 36 37 38 38 36 34 31 28 30 36 40
39 43 47 49 48 45 43 42 38 38 38 37 38 39 38 35 34 33 35 37 38 39 39 38 35 34 33 33 32 34 38 40
32 36 38 38 38 39 40 36 39 38 38 41 42 43 40 40 40 37 38 41 41 40 38 36 34 34 34 35 34 35 39 40
13 16 20 26 31 35 33 35 36 39 42 44 46 46 45 45 43 43 42 41 41 39 38 38 37 35 34 34 34 36 37 45
12 17 22 26 31 32 32 36 41 45 46 48 51 51 52 50 49 48 44 42 41 39 38 38 39 37 33 33 34 37 42 48
19 23 27 31 35 37 40 44 48 50 51 53 55 56 57 55 54 50 46 44 43 39 37 39 40 37 35 34 35 39 44 50
27 32 34 39 44 46 50 52 54 56 56 57 58 61 61 59 57 52 50 47 43 40 39 40 37 38 35 35 38 43 47 51
36 39 41 45 49 50 54 57 59 60 61 62 64 64 62 61 58 56 51 48 43 43 42 40 36 36 35 37 38 44 49 52
39 40 42 45 47 49 53 58 61 62 65 66 67 64 64 63 60 56 53 48 44 43 42 39 37 37 36 38 41 44 48 52
37 38 41 45 44 47 53 58 62 66 68 68 67 67 65 62 59 56 52 50 48 45 40 37 37 37 37 38 41 46 50 53
Wind_Direction_850mb
151 147 142 137 132 124 119 117 106 91 82 49 359 352 291 264 273 294 306 316 328 337 345 345 343 343 344 345 346 345 345 344
142 138 134 130 126 122 121 106 93 63 91 186 260 251 246 261 280 293 307 320 331 338 341 340 341 344 346 347 345 342 339 338
144 142 141 146 163 212 253 263 212 194 211 225 245 250 262 265 283 295 311 324 332 333 336 339 341 342 340 338 337 338 339 338
161 166 164 185 190 168 174 187 205 215 224 222 225 236 246 268 285 303 318 324 329 334 335 334 331 331 331 333 335 336 335 334
168 169 178 178 184 187 200 210 217 217 217 224 225 237 259 275 291 309 319 323 324 321 318 317 319 323 326 329 331 331 328 329
183 187 186 185 193 207 218 216 216 217 221 226 233 251 270 281 295 308 310 309 307 306 309 312 314 316 321 325 324 322 325 323
194 195 196 201 210 216 215 216 219 223 228 231 240 258 269 280 294 296 295 298 301 303 305 306 307 314 315 316 317 318 315 315
206 207 210 212 214 216 217 220 225 228 231 235 249 260 271 282 283 288 293 294 296 299 302 304 308 310 312 314 311 313 313 314
215 219 220 219 221 221 223 224 228 232 235 242 252 265 275 278 281 283 285 290 293 298 300 303 306 307 306 307 311 311 310 310
224 227 221 221 223 227 227 229 232 236 242 250 261 267 271 276 276 277 282 287 292 297 300 300 299 299 304 309 308 307 310 315
212 214 218 223 228 232 234 235 238 241 246 254 263 270 272 270 272 277 281 286 292 294 292 292 294 297 298 303 312 313 312 315
215 221 228 233 235 234 235 237 238 243 252 262 269 268 266 267 270 275 279 284 287 288 289 290 292 298 305 308 306 304 311 316
225 233 235 233 232 232 233 234 241 251 263 270 271 267 268 268 269 273 276 278 280 281 284 289 293 296 295 296 300 304 313 318
212 218 222 222 226 230 235 243 256 265 270 274 274 269 268 268 268 271 272 274 277 282 286 289 289 286 290 295 298 308 314 319
248 251 248 245 245 248 252 260 266 272 277 279 276 270 269 269 269 269 271 274 276 278 277 281 284 285 287 292 301 308 315 320
270 265 261 256 255 257 263 268 272 275 276 278 278 274 272 269 269 270 272 272 270 269 270 274 275 278 285 291 301 306 316 323
279 274 271 265 263 265 268 270 273 275 278 280 278 275 271 271 271 271 269 266 263 262 265 268 268 277 283 289 297 309 319 323
280 273 269 267 267 271 273 273 275 276 277 277 277 276 274 271 271 271 267 265 263 262 265 267 271 280 280 288 302 313 318 319
281 282 280 276 276 274 273 273 273 275 277 275 275 273 271 270 269 267 265 266 263 262 263 263 273 277 283 294 305 311 314 317
286 287 285 283 283 281 278 277 277 278 276 274 272 271 269 268 266 264 262 260 259 261 261 263 273 274 284 296 306 311 314 317